Home > Weather > Paris > Past weeks

Flag for France Past Weather in Paris, Île-de-France, France — Yesterday and Last 2 Weeks

Now
72 °F

Clear.


Feels Like: 75 °F
Forecast: 70 / 92 °F
Wind: 3 mph from Southeast

Location: Villacoublay

Current Time: Aug 25, 2016 at 6:47:05 AM

Latest Report: Aug 25, 2016 at 6:00 AM


Visibility: 10 mi

Pressure: 29.98 "Hg

Humidity: 65%

Dew Point: 59 °F

Location of ParisLocation

Past Weather in Paris — Graph

°F

Paris Temperature Yesterday

Maximum temperature yesterday: 95 °F (at 4:30 PM)
Minimum temperature yesterday: 68 °F (at 7:30 AM)
Average temperature yesterday: 82 °F

High & Low Weather Summary for the Past Weeks

 TemperatureHumidityPressure
High95 °F (Aug 24, 4:30 PM)100% (Aug 18, 8:00 AM)30.36 "Hg (Aug 18, 8:00 AM)
Low48 °F (Aug 11, 6:00 AM)28% (Aug 24, 6:00 PM)29.80 "Hg (Aug 18, 3:30 AM)
Average69 °F65%30.11 "Hg
* Reported Aug 10 5:00 AM — Aug 25 5:30 AM, Paris, Weather by CustomWeather, © 2016

Note: Actual official high and low records may vary slightly from our data, if they occured in-between our weather recording intervals... More about our weather records

Advertising

Paris Weather History for the Previous 24 Hours

Scroll right to see more
 ConditionsComfort  
Time TempWeatherWind HumidityBarometerVisibility
5:30 AM
Thu, Aug 25
72 °FClear.5 mph65%29.98 "Hg10 mi
5:00 AM72 °FClear.3 mph69%29.98 "Hg10 mi
4:30 AM70 °FClear.No wind73%30.01 "Hg10 mi
4:00 AM72 °FClear.1 mph69%30.01 "Hg10 mi
3:30 AM72 °FClear.3 mph65%30.01 "Hg10 mi
3:00 AM73 °FClear.2 mph61%30.01 "Hg10 mi
2:30 AM75 °FClear.No wind57%30.01 "Hg10 mi
2:00 AM77 °FClear.3 mph54%30.01 "Hg10 mi
1:30 AM79 °FClear.3 mph51%30.01 "Hg10 mi
1:00 AM81 °FClear.5 mph45%30.01 "Hg10 mi
12:30 AM81 °FClear.5 mph45%30.04 "Hg10 mi
12:00 AM82 °FPassing clouds.5 mph42%30.04 "HgN/A
11:30 PM
Wed, Aug 24
82 °FClear.5 mph42%30.04 "Hg10 mi
11:00 PM82 °FClear.6 mph45%30.04 "Hg10 mi
10:30 PM84 °FClear.5 mph45%30.04 "Hg10 mi
10:00 PM84 °FClear.5 mph45%30.04 "Hg10 mi
9:30 PM86 °FSunny.5 mph43%30.04 "Hg10 mi
9:00 PM88 °FSunny.5 mph40%30.04 "Hg10 mi
8:30 PM90 °FSunny.5 mph38%30.04 "Hg10 mi
8:00 PM91 °FSunny.3 mph34%30.04 "Hg10 mi
7:30 PM93 °FSunny.3 mph32%30.04 "Hg10 mi
7:00 PM93 °FSunny.3 mph30%30.04 "Hg10 mi
6:30 PM93 °FPassing clouds.3 mph30%30.04 "HgN/A
6:00 PM95 °FPassing clouds.5 mph28%30.04 "HgN/A
5:30 PM95 °FSunny.5 mph30%30.04 "Hg10 mi
5:00 PM95 °FPassing clouds.5 mph30%30.04 "HgN/A
4:30 PM95 °FPassing clouds.5 mph30%30.07 "HgN/A
4:00 PM93 °FPassing clouds.5 mph32%30.07 "HgN/A
3:30 PM91 °FPassing clouds.6 mph34%30.07 "HgN/A
3:00 PM91 °FPassing clouds.8 mph36%30.07 "HgN/A
2:30 PM90 °FPassing clouds.8 mph38%30.07 "HgN/A
2:00 PM90 °FSunny.7 mph41%30.07 "Hg10 mi
1:30 PM88 °FPassing clouds.7 mph43%30.09 "HgN/A
1:00 PM86 °FPassing clouds.7 mph46%30.09 "HgN/A
12:30 PM84 °FPassing clouds.7 mph51%30.09 "HgN/A
12:00 PM82 °FPassing clouds.5 mph51%30.09 "HgN/A
11:30 AM81 °FSunny.3 mph54%30.12 "Hg10 mi
11:00 AM79 °FPassing clouds.6 mph58%30.12 "HgN/A
10:30 AM79 °FPassing clouds.3 mph58%30.12 "HgN/A
10:00 AM75 °FPassing clouds.6 mph65%30.12 "HgN/A
9:30 AM75 °FPassing clouds.5 mph65%30.12 "HgN/A
9:00 AM73 °FPassing clouds.5 mph69%30.12 "HgN/A
8:30 AM73 °FSunny.2 mph65%30.12 "Hg10 mi
8:00 AM72 °FSunny.3 mph69%30.12 "Hg10 mi
7:30 AM68 °FClear.2 mph78%30.12 "Hg10 mi
7:00 AM70 °FClear.6 mph73%30.09 "Hg10 mi
6:30 AM70 °FClear.6 mph73%30.09 "Hg10 mi
6:00 AM70 °FClear.5 mph73%30.09 "Hg10 mi
Weather by CustomWeather, © 2016

See weather overviewHow to use our weather pages